GW6041 Weather Reports


time (UTC)temp
C
wind
direction
speed
KPH
gust
KPH
rain 1hr
cm
rain 24hr
cm
rain mn
cm
humidity
%
barometer
mb
20260506035218 0 85 4.8 9.7 0.00 0.00 0.00 96 1005.5
20260506034714 0 68 8.0 9.7 0.00 0.00 0.00 96 1005.6
20260506034212 0 79 8.0 9.7 0.00 0.00 0.00 96 1005.5
20260506033709 0 78 6.4 8.0 0.00 0.00 0.00 96 1005.6
20260506033206 0 78 6.4 8.0 0.00 0.00 0.00 96 1005.4
20260506032703 0 73 9.7 11.3 0.00 0.00 0.00 96 1005.4
20260506032200 0 68 9.7 11.3 0.00 0.00 0.00 96 1005.4
20260506031657 0 66 11.3 11.3 0.00 0.00 0.00 96 1005.3
20260506031154 0 64 9.7 11.3 0.00 0.00 0.00 96 1005.2
20260506030652 1 63 9.7 9.7 0.00 0.00 0.00 96 1005.4
20260506030149 1 55 8.0 8.0 0.00 0.00 0.00 96 1005.2
20260506025646 1 72 4.8 4.8 0.00 0.00 0.00 96 1004.9
20260506025142 1 69 4.8 4.8 0.00 0.00 0.00 96 1005.1
20260506024640 1 84 4.8 6.4 0.00 0.00 0.00 96 1005.0
20260506024136 1 92 6.4 6.4 0.00 0.00 0.00 96 1005.0
20260506023632 1 82 4.8 6.4 0.00 0.00 0.00 96 1005.2
20260506023129 1 73 4.8 6.4 0.00 0.00 0.00 96 1005.3
20260506022627 1 79 6.4 6.4 0.00 0.00 0.00 96 1005.2
20260506022124 1 76 6.4 8.0 0.00 0.00 0.00 96 1005.0
20260506021622 1 77 6.4 8.0 0.00 0.00 0.00 96 1004.9
20260506021119 1 79 4.8 6.4 0.00 0.00 0.00 96 1005.0
20260506020616 1 69 6.4 6.4 0.00 0.00 0.00 95 1005.0
20260506020113 1 72 6.4 6.4 0.00 0.00 0.00 95 1004.8
20260506015611 1 69 6.4 6.4 0.00 0.00 0.00 95 1004.7
20260506015107 1 76 6.4 9.7 0.00 0.00 0.00 95 1004.8
20260506014605 1 77 8.0 8.0 0.00 0.00 0.00 95 1004.9
20260506014100 1 71 8.0 9.7 0.00 0.00 0.00 95 1004.6
20260506013559 1 56 9.7 9.7 0.00 0.00 0.00 95 1004.8
20260506013055 1 54 8.0 9.7 0.00 0.00 0.00 95 1004.8
20260506012551 1 71 6.4 8.0 0.00 0.00 0.00 94 1004.7
20260506012048 1 64 6.4 8.0 0.00 0.00 0.00 94 1004.7
20260506011546 1 84 6.4 6.4 0.00 0.00 0.00 94 1004.5
20260506011042 1 85 4.8 6.4 0.00 0.00 0.00 94 1004.6
20260506010542 1 55 4.8 6.4 0.00 0.00 0.00 94 1004.5
20260506010038 1 69 4.8 4.8 0.00 0.00 0.00 94 1004.5
20260506005535 1 92 4.8 6.4 0.00 0.00 0.00 94 1004.7
20260506005031 1 63 3.2 4.8 0.00 0.00 0.00 94 1004.4
20260506004528 1 65 6.4 8.0 0.00 0.00 0.00 94 1004.6
20260506004025 1 60 6.4 6.4 0.00 0.00 0.00 94 1004.6
20260506003521 1 43 4.8 4.8 0.00 0.00 0.00 94 1004.3
20260506003017 1 45 0.0 4.8 0.00 0.00 0.00 94 1004.5
20260506002514 1 78 3.2 4.8 0.00 0.00 0.00 94 1004.5
20260506002009 1 83 3.2 4.8 0.00 0.00 0.00 94 1004.2
20260506001506 1 74 3.2 6.4 0.00 0.00 0.00 94 1004.5
20260506001004 1 84 6.4 6.4 0.00 0.00 0.00 94 1004.5
20260506000501 1 64 6.4 9.7 0.00 0.00 0.00 94 1004.2
20260505235957 1 71 6.4 6.4 0.00 0.00 0.00 94 1004.3
20260505235456 1 71 6.4 6.4 0.00 0.00 0.00 94 1004.3
20260505234952 1 77 6.4 6.4 0.00 0.00 0.00 94 1004.0
20260505234450 1 59 6.4 6.4 0.00 0.00 0.00 94 1004.2
20260505233946 1 74 4.8 6.4 0.00 0.00 0.00 93 1004.1
20260505233444 1 69 8.0 9.7 0.00 0.00 0.00 93 1003.9
20260505232941 1 74 6.4 9.7 0.00 0.00 0.00 93 1004.1
20260505232439 1 68 9.7 11.3 0.00 0.00 0.00 93 1004.0
20260505231936 1 75 8.0 11.3 0.00 0.00 0.00 93 1004.0
20260505231433 1 70 6.4 9.7 0.00 0.00 0.00 92 1004.1
20260505230931 2 73 6.4 8.0 0.00 0.00 0.00 92 1003.9
20260505230429 2 77 8.0 9.7 0.00 0.00 0.00 92 1003.9
20260505225925 2 71 9.7 11.3 0.00 0.00 0.00 92 1004.1
20260505225422 2 64 9.7 11.3 0.00 0.00 0.00 92 1003.9
20260505224917 2 81 4.8 8.0 0.00 0.00 0.00 92 1004.0
20260505224415 2 71 9.7 9.7 0.00 0.00 0.00 91 1003.9
20260505223912 2 78 6.4 9.7 0.00 0.00 0.00 91 1003.9
20260505223409 2 80 6.4 9.7 0.00 0.00 0.00 90 1003.9
20260505222905 2 70 6.4 9.7 0.00 0.00 0.00 89 1003.9
20260505222401 2 70 9.7 11.3 0.00 0.00 0.00 88 1003.8
20260505221858 2 52 6.4 6.4 0.00 0.00 0.00 87 1003.9
20260505221355 3 47 6.4 8.0 0.00 0.00 0.00 85 1003.7
20260505220852 3 38 3.2 4.8 0.00 0.00 0.00 83 1003.5
20260505220349 3 20 6.4 9.7 0.00 0.00 0.00 83 1003.7
20260505215847 3 77 3.2 4.8 0.00 0.03 0.03 82 1003.7
20260505215345 3 106 4.8 6.4 0.00 0.03 0.03 82 1003.6
20260505214843 3 96 3.2 6.4 0.00 0.03 0.03 82 1003.6
20260505214340 3 269 0.0 3.2 0.00 0.03 0.03 81 1003.7
20260505213837 3 262 0.0 9.7 0.00 0.03 0.03 82 1003.5
20260505213335 3 94 3.2 3.2 0.00 0.03 0.03 81 1003.6
20260505212830 3 84 1.6 9.7 0.00 0.03 0.03 81 1003.4
20260505212328 3 112 4.8 4.8 0.00 0.03 0.03 81 1003.5
20260505211824 3 112 0.0 4.8 0.00 0.03 0.03 81 1003.4
20260505211322 3 115 6.4 8.0 0.00 0.03 0.03 81 1003.4
20260505210818 3 117 4.8 6.4 0.00 0.03 0.03 80 1003.4
20260505210315 3 93 3.2 9.7 0.00 0.03 0.03 78 1003.3
20260505205812 3 121 4.8 8.0 0.00 0.03 0.03 78 1003.4
20260505205310 3 341 1.6 6.4 0.00 0.03 0.03 78 1003.3
20260505204806 3 102 8.0 8.0 0.00 0.03 0.03 78 1003.2
20260505204304 3 91 4.8 8.0 0.00 0.03 0.03 78 1003.1
20260505203801 3 95 4.8 6.4 0.00 0.03 0.03 78 1003.0
20260505203258 3 104 4.8 8.0 0.00 0.03 0.03 78 1003.0
20260505202754 3 91 8.0 11.3 0.00 0.03 0.03 78 1003.1
20260505202250 3 107 6.4 9.7 0.00 0.03 0.03 78 1002.9
20260505201747 3 89 6.4 8.0 0.00 0.03 0.03 78 1002.9
20260505201244 3 95 8.0 8.0 0.00 0.03 0.03 77 1002.9
20260505200743 3 89 6.4 9.7 0.00 0.03 0.03 77 1002.8
20260505200240 3 100 4.8 9.7 0.00 0.03 0.03 76 1002.8
20260505195735 3 78 3.2 11.3 0.00 0.03 0.03 76 1002.9
20260505195233 4 93 8.0 9.7 0.00 0.03 0.03 75 1002.8
20260505194730 4 89 4.8 8.0 0.00 0.03 0.03 74 1002.8
20260505194226 4 62 3.2 6.4 0.00 0.03 0.03 73 1003.0
20260505193722 4 83 3.2 9.7 0.00 0.03 0.03 73 1002.8
20260505193219 4 80 3.2 4.8 0.00 0.03 0.03 73 1002.8
20260505192718 4 123 8.0 9.7 0.00 0.03 0.03 72 1002.7
20260505192215 4 144 3.2 4.8 0.00 0.03 0.03 71 1002.7
20260505191713 4 139 4.8 9.7 0.00 0.03 0.03 71 1002.8
20260505191211 4 105 6.4 8.0 0.00 0.03 0.03 71 1002.6
20260505190708 5 125 4.8 9.7 0.00 0.03 0.03 71 1002.8
20260505190207 5 36 0.0 9.7 0.00 0.03 0.03 71 1002.7
20260505185704 5 80 4.8 6.4 0.00 0.03 0.03 71 1002.6
20260505185200 5 118 8.0 8.0 0.00 0.03 0.03 71 1002.6
20260505184657 5 94 4.8 9.7 0.00 0.03 0.03 70 1002.5
20260505184154 5 142 4.8 8.0 0.00 0.03 0.03 70 1002.5
20260505183651 5 52 4.8 8.0 0.00 0.03 0.03 69 1002.5
20260505183148 5 102 4.8 6.4 0.00 0.03 0.03 67 1002.4
20260505182645 5 91 6.4 9.7 0.00 0.03 0.03 66 1002.3
20260505182142 5 62 8.0 8.0 0.00 0.03 0.03 67 1002.3
20260505181638 5 54 3.2 6.4 0.00 0.03 0.03 67 1002.5
20260505181135 5 346 4.8 4.8 0.00 0.03 0.03 68 1002.2
20260505180631 5 103 0.0 6.4 0.00 0.03 0.03 71 1002.2
20260505180129 5 123 6.4 11.3 0.00 0.03 0.03 66 1002.3
20260505175625 5 125 4.8 8.0 0.00 0.03 0.03 66 1002.2
20260505175122 5 144 9.7 9.7 0.00 0.03 0.03 61 1002.2
20260505174618 6 103 4.8 4.8 0.00 0.03 0.03 58 1002.2
20260505174114 6 122 0.0 4.8 0.00 0.03 0.03 59 1002.1
20260505173611 6 262 0.0 4.8 0.00 0.03 0.03 58 1002.0
20260505173108 6 24 0.0 4.8 0.00 0.03 0.03 61 1002.0
20260505172606 6 282 3.2 4.8 0.00 0.03 0.03 60 1002.0
20260505172102 6 277 0.0 4.8 0.00 0.03 0.03 62 1002.1
20260505171556 6 258 3.2 8.0 0.00 0.03 0.03 61 1001.9
20260505171054 6 278 4.8 9.7 0.00 0.03 0.03 64 1002.0
20260505170551 6 258 8.0 11.3 0.00 0.03 0.03 62 1002.0
20260505170047 6 269 8.0 11.3 0.00 0.03 0.03 62 1002.0
20260505165542 6 305 8.0 9.7 0.00 0.03 0.03 59 1001.9
20260505165038 6 267 6.4 9.7 0.00 0.03 0.03 60 1001.9
20260505164534 6 267 12.9 14.5 0.00 0.03 0.03 60 1001.9
20260505164032 6 289 9.7 14.5 0.00 0.03 0.03 60 1001.7
20260505163531 6 290 12.9 14.5 0.00 0.03 0.03 61 1001.5
20260505163027 6 279 11.3 16.1 0.00 0.03 0.03 60 1001.7
20260505162520 6 286 16.1 16.1 0.00 0.03 0.03 60 1001.7
20260505162017 6 258 9.7 14.5 0.00 0.03 0.03 60 1001.8
20260505161514 6 286 8.0 14.5 0.00 0.03 0.03 62 1001.5
20260505161011 6 264 11.3 12.9 0.00 0.03 0.03 61 1001.7
20260505160509 6 274 8.0 16.1 0.00 0.03 0.03 60 1001.6
20260505152945 6 289 16.1 16.1 0.00 0.03 0.03 64 1001.5
20260505152443 6 290 11.3 14.5 0.00 0.03 0.03 64 1001.4
20260505151943 6 278 11.3 12.9 0.00 0.03 0.03 64 1001.6
20260505151439 6 294 12.9 14.5 0.00 0.03 0.03 61 1001.3
20260505150937 6 288 11.3 14.5 0.00 0.03 0.03 60 1001.4
20260505150433 6 279 9.7 16.1 0.00 0.03 0.03 62 1001.3
20260505140404 6 282 9.7 12.9 0.00 0.03 0.03 61 1000.9
20260505124817 6 263 12.9 19.3 0.00 0.03 0.03 67 1000.3
20260505124314 6 267 11.3 19.3 0.00 0.03 0.03 68 1000.6
20260505123810 6 274 14.5 16.1 0.00 0.03 0.03 67 1000.6
20260505123306 6 270 12.9 19.3 0.00 0.03 0.03 67 1000.2
20260505122803 7 297 12.9 14.5 0.00 0.03 0.03 66 1000.4
20260505122300 6 286 11.3 17.7 0.00 0.03 0.03 69 1000.3
20260505121756 6 294 11.3 14.5 0.00 0.03 0.03 70 1000.3
20260505121253 6 289 9.7 12.9 0.00 0.03 0.03 69 1000.4
20260505120750 6 282 8.0 9.7 0.00 0.03 0.03 70 1000.2
20260505120246 6 262 12.9 17.7 0.00 0.03 0.03 71 1000.4
20260505115745 5 275 11.3 14.5 0.00 0.03 0.03 73 1000.2
20260505115242 5 295 9.7 11.3 0.00 0.03 0.03 72 1000.1
20260505114740 5 316 6.4 11.3 0.00 0.03 0.03 73 1000.2
20260505114235 5 306 3.2 6.4 0.00 0.03 0.03 73 999.9
20260505113732 5 57 3.2 11.3 0.00 0.03 0.03 69 1000.1
20260505113229 5 337 4.8 8.0 0.00 0.03 0.03 73 1000.1
20260505112725 5 327 8.0 9.7 0.00 0.03 0.03 75 999.9
20260505112223 5 283 4.8 9.7 0.00 0.03 0.03 72 1000.0
20260505111723 6 306 4.8 8.0 0.00 0.03 0.03 73 1000.0
20260505111219 5 320 3.2 8.0 0.00 0.03 0.03 75 999.9
20260505110715 5 295 4.8 9.7 0.00 0.03 0.03 73 999.8
20260505110213 5 296 6.4 8.0 0.00 0.03 0.03 76 999.9
20260505102148 5 289 3.2 4.8 0.00 0.03 0.03 74 999.7
20260505101647 5 257 0.0 4.8 0.00 0.03 0.03 75 999.6
20260505101143 5 21 0.0 3.2 0.00 0.03 0.03 72 999.5
20260505100639 6 308 3.2 4.8 0.00 0.03 0.03 75 999.5
20260505100136 5 105 0.0 3.2 0.00 0.03 0.03 76 999.5
20260505095632 5 244 0.0 4.8 0.00 0.03 0.03 74 999.5
20260505095129 6 266 1.6 4.8 0.00 0.03 0.03 74 999.3
20260505094625 5 81 3.2 3.2 0.00 0.03 0.03 78 999.3
20260505094122 5 2 3.2 3.2 0.00 0.03 0.03 78 999.4
20260505093618 5 12 0.0 3.2 0.00 0.03 0.03 79 999.1
20260505093115 5 295 0.0 3.2 0.00 0.03 0.03 79 999.2
20260505092612 5 89 3.2 4.8 0.00 0.03 0.03 79 999.2
20260505092112 4 63 3.2 4.8 0.00 0.03 0.03 80 999.3
20260505091607 4 220 1.6 3.2 0.00 0.03 0.03 81 999.4
20260505091106 5 302 0.0 3.2 0.00 0.03 0.03 84 999.3
20260505090603 4 111 0.0 4.8 0.00 0.03 0.03 83 999.2
20260505090101 4 26 0.0 3.2 0.00 0.03 0.03 84 999.3
20260505085558 4 321 0.0 4.8 0.00 0.03 0.03 83 999.1
20260505085057 4 6 3.2 4.8 0.00 0.03 0.03 83 999.2
20260505084554 3 54 3.2 8.0 0.00 0.03 0.03 85 999.2
20260505084052 3 26 4.8 6.4 0.00 0.03 0.03 88 999.0
20260505083549 3 37 4.8 4.8 0.00 0.03 0.03 89 999.2
20260505083046 3 345 0.0 4.8 0.00 0.03 0.03 89 999.0
20260505082541 3 14 3.2 4.8 0.00 0.03 0.03 90 999.2
20260505082039 3 313 3.2 3.2 0.00 0.03 0.03 91 999.0
20260505081535 3 332 4.8 4.8 0.00 0.03 0.03 91 999.0
20260505081032 3 332 3.2 6.4 0.00 0.03 0.03 91 999.0
20260505080528 3 330 0.0 3.2 0.00 0.03 0.03 92 998.9
20260505080025 2 332 3.2 4.8 0.00 0.03 0.03 92 999.0
20260505075521 2 279 0.0 3.2 0.00 0.03 0.03 92 998.9
20260505075018 2 263 1.6 3.2 0.00 0.03 0.03 93 998.8
20260505074515 2 121 3.2 4.8 0.00 0.03 0.03 94 998.8
20260505074012 2 100 0.0 4.8 0.00 0.03 0.03 95 998.8
20260505073510 2 107 3.2 3.2 0.00 0.03 0.03 94 998.7
20260505073008 2 99 3.2 4.8 0.00 0.03 0.03 95 998.8
20260505072503 2 31 0.0 3.2 0.00 0.03 0.03 95 998.8
20260505071959 2 66 3.2 4.8 0.00 0.03 0.03 95 998.8
20260505071455 2 57 1.6 3.2 0.00 0.03 0.03 95 998.7
20260505070953 1 79 1.6 3.2 0.00 0.03 0.03 95 998.7
20260505070450 1 66 4.8 4.8 0.00 0.03 0.03 95 998.9
20260505065946 1 59 4.8 4.8 0.00 0.03 0.03 96 998.7
20260505065442 1 40 3.2 6.4 0.00 0.03 0.03 96 998.7
20260505064939 1 88 1.6 3.2 0.00 0.03 0.03 96 998.7
20260505064436 1 72 3.2 4.8 0.00 0.03 0.03 96 998.6
20260505063934 1 121 3.2 3.2 0.00 0.03 0.03 96 998.5
20260505063431 1 55 0.0 4.8 0.00 0.03 0.03 96 998.5
20260505062927 1 54 3.2 4.8 0.00 0.03 0.03 95 998.6
20260505062425 1 72 4.8 6.4 0.00 0.03 0.03 95 998.6
20260505061921 1 51 4.8 4.8 0.00 0.03 0.03 95 998.5
20260505061419 1 61 3.2 4.8 0.00 0.03 0.03 95 998.5
20260505060917 1 45 8.0 8.0 0.00 0.03 0.03 95 998.6
20260505060413 1 102 3.2 4.8 0.00 0.03 0.03 95 998.5
20260505055909 1 57 4.8 4.8 0.00 0.03 0.03 95 998.4
20260505055406 1 77 3.2 4.8 0.00 0.03 0.03 95 998.5
20260505054903 1 83 3.2 4.8 0.00 0.03 0.03 95 998.5
20260505054400 1 46 6.4 6.4 0.00 0.03 0.03 95 998.5
20260505053858 1 43 6.4 6.4 0.05 0.03 0.03 95 998.5
20260505053355 1 87 4.8 6.4 0.05 0.03 0.03 94 998.3
20260505052852 1 64 6.4 8.0 0.00 0.03 0.03 94 998.2
20260505052348 1 61 4.8 4.8 0.00 0.03 0.03 94 998.4
20260505051846 1 47 6.4 6.4 0.00 0.03 0.03 94 998.3
20260505051343 1 60 6.4 6.4 0.00 0.03 0.03 94 998.2
20260505050841 1 61 6.4 8.0 0.00 0.03 0.03 93 998.2
20260505050339 1 61 8.0 8.0 0.00 0.03 0.03 93 998.1
20260505041306 1 80 3.2 3.2 0.00 0.00 0.00 95 997.9
20260505040803 1 80 3.2 4.8 0.00 0.00 0.00 95 998.0
20260505040301 1 67 4.8 4.8 0.00 0.00 0.00 96 998.1
20260505035758 1 50 0.0 3.2 0.05 0.00 0.00 96 998.0